Location: Astronomy Club of Akron Observatory
(40.9700°N, 81.5606°W)
Time: 15:23:14
(UTC-05:00)

Hubble Space Telescope - Pass Details

Date: 19 July 2018
Orbit: 537 x 540 km, 28.5° (Epoch: 17 November)

Event Time Altitude Azimuth Distance (km) Brightness Sun altitude
Exits shadow 05:22:29 10° 216° (SW) 1,790 2.8 -8.4°
Reaches altitude 10° 05:22:32 10° 215° (SW) 1,779 2.8 -8.4°
Maximum altitude 05:24:44 14° 183° (S) 1,532 2.7 -8.1°
Drops below altitude 10° 05:26:56 10° 150° (SSE) 1,778 3.4 -7.7°
Sets 05:30:05 0° 125° (SE) 2,667 4.6 -7.3°
